AirNav   ATP
 
 1246 users online  

5H3 Clear Lake Municipal Airport
Clear Lake, South Dakota, USA

GOING TO CLEAR LAKE?


FAA INFORMATION EFFECTIVE 11 OCTOBER 2018

Location

FAA Identifier: 5H3
Lat/Long: 44-46-18.1002N / 096-41-18.2079W
44-46.301670N / 096-41.303465W
44.7716945 / -96.6883911
(estimated)
Elevation: 1804 ft. / 549.9 m (surveyed)
Variation: 06E (1985)
From city: 1 mile N of CLEAR LAKE, SD
Time zone: UTC -5 (UTC -6 during Standard Time)
Zip code: 57226

Airport Operations

Airport use: Open to the public
Activation date: 09/1964
Control tower: no
ARTCC: MINNEAPOLIS CENTER
FSS: HURON FLIGHT SERVICE STATION
NOTAMs facility: HON (NOTAM-D service available)
Attendance: UNATNDD
Wind indicator: lighted
Segmented circle: no
Lights: ACTVT LIRL RY 13/31 - CTAF.
Beacon: white-green (lighted land airport)
Operates sunset to sunrise.

Airport Communications

CTAF: 122.9
WX AWOS-3 at CNB (18 nm E): 118.575 (507-223-5293)

Nearby radio navigation aids

VOR radial/distance  VOR name  Freq  Var
ATYr114/23.0WATERTOWN VORTAC116.6009E

 
NDB name  Hdg/Dist  Freq  Var  ID
DAWSON/MADISON237/25.134103EDXX -.. -..- -..-
ORTONVILLE195/33.833205EVVV ...- ...- ...-
APPLETON221/39.835605EAQP .- --.- .--.

Airport Services

Parking: tiedowns
Airframe service: NONE
Powerplant service: NONE
Bottled oxygen: NONE
Bulk oxygen: NONE

Runway Information

Runway 13/31

Dimensions: 3000 x 150 ft. / 914 x 46 m
Surface: turf, in good condition
Runway edge lights: low intensity
Runway edge markings: RY 13 /31 MKD WITH WHITE AND BLACK CONE MARKERS.
RUNWAY 13  RUNWAY 31
Latitude: 44-46.480167N44-46.113000N
Longitude: 096-41.496333W096-41.031500W
Elevation: 1804.0 ft.1801.0 ft.
Gradient: 0.2%0.2%
Traffic pattern: leftleft
Markings: NSTDNSTD
Runway end identifier lights: nono
Obstructions: 17 ft. road, 340 ft. from runway, 20:1 slope to clear21 ft. pline, 420 ft. from runway, 20:1 slope to clear

Runway 2/20

Dimensions: 2130 x 150 ft. / 649 x 46 m
Surface: turf, in fair condition
RUNWAY 2  RUNWAY 20
Latitude: 44-46.146000N44-46.471667N
Longitude: 096-41.450000W096-41.268333W
Elevation: 1799.0 ft.1804.0 ft.
Traffic pattern: leftleft
Obstructions: none17 ft. road, 375 ft. from runway, 22:1 slope to clear

Airport Ownership and Management from official FAA records

Ownership: Publicly-owned
Owner: CITY OF CLEAR LAKE
PO BOX 107
CLEAR LAKE, SD 57226
Phone 605-874-2121
Manager: KAREN HARFORD
PO BOX 107
CLEAR LAKE, SD 57226
Phone 605-874-2121

Airport Operational Statistics

Aircraft based on the field: 3
Single engine airplanes: 3
    
Aircraft operations: avg 46/month *
91% local general aviation
9% transient general aviation
* for 12-month period ending 07 September 2017

Additional Remarks

RY 31 +4' FENCE 255' FM THR;
RY 02 +4' FENCE 145' FM THR.
ARPT CLSD WINTER MONTHS DUE TO SNOW CONDITIONS, CALL 605-874-2121 FOR CONDITIONS .
WILDLIFE ON & INVOF ARPT.

Instrument Procedures

There are no published instrument procedures at 5H3.

Some nearby airports with instrument procedures:

KCNB - Myers Field Airport (18 nm E)
KATY - Watertown Regional Airport (22 nm NW)
KDXX - Lac Qui Parle County Airport (25 nm NE)
1D1 - Milbank Municipal Airport (28 nm N)
KBKX - Brookings Regional Airport (29 nm S)
 
Loc | Ops | Rwys | IFR | FBO | Links
Com | Nav | Svcs | Stats | Notes

Mandan Aero Center
 
Area around 5H3 (Clear Lake Municipal Airport)
 
Road maps at: MapQuest Bing Google
 
Aerial photo
WARNING: Photo may not be current or correct
Aerial photo of 5H3 (Clear Lake Municipal Airport)
Photo by Steve Hamilton
Photo taken 28-Oct-2008

Do you have a better or more recent aerial photo of Clear Lake Municipal Airport that you would like to share? If so, please send us your photo.

 
Sectional chart

 
Airport distance calculator
Flying to Clear Lake Municipal Airport? Find the distance to fly.

From to 5H3

Sunrise and sunset
Times for 15-Oct-2018
 Local
(UTC-5)
 Zulu
(UTC)
Morning civil twilight07:1412:14
Sunrise07:4312:43
Sunset18:4223:42
Evening civil twilight19:1100:11

Current date and time
Zulu (UTC)  15-Oct-2018 22:03:02
Local (UTC-5)  15-Oct-2018 17:03:02
 
METAR
KCNB 
18nm E 
152155Z AUTO 24009G18KT 210V270 10SM CLR 10/M06 A3012 RMK AO2 T01021057
KATY 
21nm W 
152153Z AUTO 23019G27KT 10SM CLR 08/M06 A3006 RMK AO2 PK WND 22029/2107 SLP197 T00781061
KDXX 
26nm NE 
152155Z AUTO 23017KT 10SM CLR 10/M07 A3009 RMK AO2
KBKX 
30nm S 
152156Z AUTO 24014G19KT 10SM CLR 07/M07 A3013 RMK AO2 SLP232 T00721067
KVVV 
34nm N 
152156Z AUTO 24013G25KT 10SM CLR 09/M07 A3006 RMK AO2
TAF
KATY 
21nm W 
151726Z 1518/1618 26012G20KT P6SM SKC FM160100 22009KT P6SM SCT250 WS020/25040KT FM160500 25011G17KT P6SM SCT250 WS020/30035KT FM161200 29010KT P6SM SCT200
NOTAMs
Click for the latest NOTAMs
NOTAMs are issued by the DoD/FAA and will open in a separate window not controlled by AirNav.

 

 
 

Would you like to see your business listed on this page?

 If your business provides an interesting product or service to pilots, flight crews, aircraft, or users of the Clear Lake Municipal Airport, you should consider listing it here.  To start the listing process, click on the button below
 
Add a business
 

Other Pages about Clear Lake Municipal Airport

Update a link
 
Copyright © AirNav, LLC. All rights reserved. Privacy Policy  Contact